Location: Des Moines
(41.6010°N, 93.6090°W)
Time: 00:40:10
(UTC-05:00)

ISS - Visible Passes

Search period start: 20 October 2019 00:00
Search period end: 30 October 2019 00:00
Orbit: 411 x 421 km, 51.6° (Epoch: 20 October)

Date Brightness Start Highest point End Pass type
(mag) Time Alt. Az. Time Alt. Az. Time Alt. Az.
23 Oct -1.5 06:46:04 10° SSW 06:48:54 26° SE 06:51:45 10° ENE visible
24 Oct -0.8 05:58:27 10° SSE 06:00:28 15° SE 06:02:29 10° E visible
25 Oct -3.6 06:44:52 10° SW 06:48:13 73° SE 06:51:35 10° ENE visible
26 Oct -2.6 05:58:25 28° S 05:59:39 41° SE 06:02:51 10° ENE visible
27 Oct -1.0 05:12:22 19° ESE 05:12:22 19° ESE 05:13:53 10° E visible
27 Oct -3.3 06:45:17 16° W 06:47:42 44° NNW 06:50:57 10° NE visible
28 Oct -3.8 05:59:04 71° NNW 05:59:04 71° NNW 06:02:22 10° NE visible
29 Oct -0.9 05:12:43 18° ENE 05:12:43 18° ENE 05:13:41 10° ENE visible
29 Oct -2.3 06:45:37 16° WNW 06:47:19 24° NNW 06:50:08 10° NE visible
